Weather History for Hibbing, MN

Change the Weather History Date:

Saturday, March 9, 2013

  Actual Average Record
Temperature  
Mean Temperature 30 °F -  
Max Temperature 33 °F 31 °F 54 °F (1977)
Min Temperature 27 °F 7 °F -22 °F (1982)
Degree Days  
Heating Degree Days 35    
Moisture  
Dew Point 28 °F    
Average Humidity 85    
Maximum Humidity 92    
Minimum Humidity 72    
Precipitation  
Precipitation 0.38 in - - ()
Sea Level Pressure  
Sea Level Pressure 29.84 in    
Wind  
Wind Speed 5 mph (ESE)    
Max Wind Speed 14 mph    
Max Gust Speed -    
Visibility 3 miles    
Events Fog , Snow    
Averages and records for this station are not official NWS values.
T = Trace of Precipitation, MM = Missing Value Source: NWS Daily Summary

Daily Weather History Graph

Daily Weather History Graph

Search for Another Location

Airport:

Trip Planner

Search our weather history database for the weather conditions in past years. The results will help you decide how hot, cold, wet, or windy it might be!

Date:

Astronomy

Mar. 09, 2013 Rise Set
Actual Time 6:35 AM CST 6:08 PM CST
Civil Twilight 6:05 AM CST 6:39 PM CST
Nautical Twilight 5:29 AM CST 7:14 PM CST
Astronomical Twilight 4:53 AM CST 7:50 PM CST
Moon 5:07 AM CST (3/9) 4:05 PM CST (3/9)
Length of Visible Light 12h 34m
Length of Day
11h 33m
Waning Crescent, 5% of the Moon is Illuminated
Mar 9
Waning Crescent
Mar 11
New
Mar 19
First Quarter
Mar 27
Full
Apr 2
Last Quarter

Hourly Weather History & Observations

Time (CST) Temp. Windchill Dew Point Humidity Pressure Visibility Wind Dir Wind Speed Gust Speed Precip Events Conditions
12:53 AM 27.0 °F 20.5 °F 19.9 °F 75% 30.14 in 9.0 mi SE 5.8 mph - N/A   Clear
1:53 AM 28.0 °F 24.2 °F 21.0 °F 75% 30.12 in 9.0 mi SSE 3.5 mph - N/A   Mostly Cloudy
2:53 AM 27.0 °F - 21.0 °F 78% 30.09 in 8.0 mi Calm Calm - N/A   Overcast
3:53 AM 28.9 °F 22.8 °F 23.0 °F 78% 30.06 in 9.0 mi ESE 5.8 mph - N/A   Overcast
4:53 AM 30.0 °F 22.4 °F 23.0 °F 75% 30.02 in 10.0 mi ESE 8.1 mph - N/A   Overcast
5:53 AM 30.9 °F 22.2 °F 23.0 °F 72% 30.01 in 10.0 mi SE 10.4 mph - N/A   Overcast
6:00 AM 30.2 °F 21.3 °F 23.0 °F 75% 29.95 in 10.0 mi SE 10.4 mph - N/A   Overcast
6:26 AM 30.2 °F 21.9 °F 24.8 °F 80% 29.94 in 1.8 mi ESE 9.2 mph - 0.00 in Snow Light Snow
6:53 AM 30.0 °F 23.2 °F 25.0 °F 82% 29.99 in 1.2 mi ESE 6.9 mph - 0.02 in Snow Light Snow
7:16 AM 30.2 °F 24.3 °F 26.6 °F 86% 29.92 in 2.0 mi ESE 5.8 mph - 0.01 in Snow Light Snow
7:29 AM 30.2 °F 24.3 °F 26.6 °F 86% 29.92 in 1.0 mi East 5.8 mph - 0.02 in Snow Light Snow
7:37 AM 30.2 °F 23.4 °F 26.6 °F 86% 29.92 in 0.8 mi ESE 6.9 mph - 0.02 in Snow Light Snow
7:53 AM 30.0 °F 24.1 °F 26.1 °F 85% 29.98 in 0.8 mi ESE 5.8 mph - 0.04 in Snow Light Snow
8:33 AM 30.2 °F 25.4 °F 26.6 °F 86% 29.89 in 1.2 mi East 4.6 mph - 0.02 in Snow Light Snow
8:51 AM 30.2 °F 25.4 °F 26.6 °F 86% 29.89 in 2.5 mi ESE 4.6 mph - 0.02 in Snow Light Snow
8:53 AM 30.0 °F 25.2 °F 26.1 °F 85% 29.95 in 2.5 mi ESE 4.6 mph - 0.02 in Snow Light Snow
9:00 AM 30.2 °F - 26.6 °F 86% 29.89 in 3.0 mi Calm Calm - 0.00 in Snow Light Snow
9:27 AM 30.2 °F 26.7 °F 26.6 °F 86% 29.87 in 2.0 mi East 3.5 mph - 0.01 in Snow Light Snow
9:36 AM 30.2 °F 26.7 °F 26.6 °F 86% 29.86 in 1.5 mi East 3.5 mph - 0.01 in Snow Light Snow
9:51 AM 30.2 °F 25.4 °F 26.6 °F 86% 29.86 in 3.0 mi East 4.6 mph - 0.01 in Snow Light Snow
9:52 AM 30.9 °F 26.2 °F 27.0 °F 85% 29.92 in 3.0 mi East 4.6 mph - 0.01 in Snow Light Snow
10:53 AM 32.0 °F 25.6 °F 28.0 °F 85% 29.88 in 4.0 mi ESE 6.9 mph - 0.00 in   Overcast
11:29 AM 33.8 °F 27.7 °F 28.4 °F 81% 29.82 in 2.5 mi SE 6.9 mph - N/A   Overcast
11:53 AM 33.1 °F 27.7 °F 28.9 °F 85% 29.88 in 2.0 mi SSE 5.8 mph - N/A   Overcast
12:13 PM 33.8 °F 27.7 °F 30.2 °F 87% 29.82 in 1.8 mi SSE 6.9 mph - N/A   Overcast
12:30 PM 33.8 °F 28.6 °F 30.2 °F 87% 29.81 in 2.0 mi SE 5.8 mph - N/A   Overcast
12:53 PM 33.1 °F 27.7 °F 30.0 °F 89% 29.85 in 2.5 mi SE 5.8 mph - N/A   Overcast
1:53 PM 33.1 °F 26.9 °F 30.0 °F 89% 29.83 in 2.5 mi SE 6.9 mph - N/A   Overcast
2:30 PM 33.8 °F 27.7 °F 30.2 °F 87% 29.76 in 2.0 mi SSE 6.9 mph - 0.00 in   Overcast
2:51 PM 33.8 °F 30.8 °F 30.2 °F 87% 29.76 in 2.0 mi SSE 3.5 mph - 0.01 in Snow Light Snow
2:53 PM 33.1 °F 28.7 °F 30.9 °F 92% 29.82 in 2.0 mi SSE 4.6 mph - 0.01 in Snow Light Snow
3:05 PM 33.8 °F 29.6 °F 30.2 °F 87% 29.75 in 1.2 mi SSE 4.6 mph - 0.01 in Snow Light Snow
3:17 PM 33.8 °F 29.6 °F 30.2 °F 87% 29.75 in 0.8 mi SSE 4.6 mph - 0.01 in Snow Light Snow
3:38 PM 33.8 °F 30.8 °F 30.2 °F 87% 29.74 in 0.8 mi ESE 3.5 mph - 0.03 in Snow Light Snow
3:45 PM 33.8 °F 30.8 °F 30.2 °F 87% 29.74 in 1.2 mi SE 3.5 mph - 0.03 in Snow Light Snow
3:53 PM 33.1 °F 30.0 °F 30.9 °F 92% 29.80 in 1.8 mi ESE 3.5 mph - 0.04 in Snow Light Snow
4:00 PM 33.8 °F 30.8 °F 30.2 °F 87% 29.73 in 2.0 mi ESE 3.5 mph - 0.00 in Snow Light Snow
4:09 PM 33.8 °F 30.8 °F 30.2 °F 87% 29.73 in 1.5 mi East 3.5 mph - 0.00 in Snow Light Snow
4:24 PM 33.8 °F - 30.2 °F 87% 29.72 in 0.8 mi Calm Calm - 0.01 in Snow Light Snow
4:53 PM 33.1 °F 30.0 °F 30.0 °F 89% 29.77 in 0.8 mi ESE 3.5 mph - 0.04 in Snow Light Snow
5:24 PM 33.8 °F - 30.2 °F 87% 29.73 in 0.2 mi Calm Calm - 0.03 in Fog , Snow Snow
5:53 PM 33.1 °F - 30.9 °F 92% 29.80 in 0.2 mi Calm Calm - 0.07 in Fog , Snow Snow
6:20 PM 33.8 °F - 30.2 °F 87% 29.74 in 0.5 mi Calm Calm - 0.05 in Fog , Snow Snow
6:40 PM 33.8 °F - 30.2 °F 87% 29.74 in 1.0 mi Calm Calm - 0.07 in Snow Light Snow
6:49 PM 33.8 °F - 30.2 °F 87% 29.75 in 0.8 mi Calm Calm - 0.08 in Snow Light Snow
6:53 PM 33.1 °F - 30.0 °F 89% 29.80 in 0.8 mi Calm Calm - 0.08 in Snow Light Snow
7:03 PM 33.8 °F - 30.2 °F 87% 29.75 in 1.0 mi Calm Calm - 0.01 in Snow Light Snow
7:36 PM 33.8 °F - 30.2 °F 87% 29.75 in 1.2 mi Calm Calm - 0.03 in Snow Light Snow
7:53 PM 33.1 °F 30.0 °F 30.0 °F 89% 29.81 in 1.2 mi NW 3.5 mph - 0.04 in Snow Light Snow
8:48 PM 32.0 °F 28.7 °F 28.4 °F 87% 29.75 in 2.0 mi NW 3.5 mph - 0.01 in Snow Light Snow
8:53 PM 32.0 °F 28.7 °F 28.9 °F 88% 29.81 in 2.0 mi NW 3.5 mph - 0.01 in Snow Light Snow
9:06 PM 32.0 °F 27.5 °F 28.4 °F 87% 29.75 in 3.0 mi NW 4.6 mph - 0.00 in Snow Light Snow
9:32 PM 32.0 °F 27.5 °F 28.4 °F 87% 29.76 in 4.0 mi WNW 4.6 mph - 0.00 in Snow Light Snow
9:39 PM 32.0 °F 28.7 °F 28.4 °F 87% 29.76 in 4.0 mi WNW 3.5 mph - 0.00 in Snow Light Snow
9:53 PM 33.1 °F 26.9 °F 28.9 °F 85% 29.81 in 4.0 mi NW 6.9 mph - 0.00 in Snow Light Snow
10:26 PM 33.8 °F 27.0 °F 28.4 °F 81% 29.77 in 7.0 mi NW 8.1 mph - 0.00 in Snow Light Snow
10:48 PM 33.8 °F 24.8 °F 28.4 °F 81% 29.76 in 7.0 mi NNW 12.7 mph - 0.00 in Snow Light Snow
10:53 PM 33.1 °F 24.4 °F 28.9 °F 85% 29.81 in 6.0 mi NNW 11.5 mph - 0.00 in Snow Light Snow
11:07 PM 33.8 °F 27.7 °F 28.4 °F 81% 29.77 in 7.0 mi NNW 6.9 mph - 0.00 in Snow Light Snow
11:53 PM 32.0 °F 22.5 °F 27.0 °F 82% 29.83 in 10.0 mi NNW 12.7 mph - 0.00 in   Overcast
11:56 PM 32.0 °F 22.1 °F 26.6 °F 80% 29.78 in 10.0 mi NNW 13.8 mph - N/A   Overcast